Find Kosmos-1052

NORAD ID: 11129 Int'l Des: 1978-109 Owner: GUKOSR Country: SU operational
LEOCIRCULAR

当前视图

正在加载3D地球...

关于 Kosmos-1052

正在加载描述...

即将过境

Passes for default location (London). Set your location on the main map for personalized predictions.

高度历史

Loading altitude history...

两行轨道根数

1 11129U 78109B 26150.03216137 .00000011 00000-0 16739-3 0 9997
2 11129 74.0144 175.5760 0049462 178.0047 207.5789 12.53728494173047
Epoch: May 30, 2026 • Age: 10 hours

当前状态

高度 1478.5 km
速度 7.12 km/s
星下点 49.68°N, 149.34°E
发射日期 Dec 5, 1978
运行时间 47.4 years
类型 other

技术详情

分类 Payload
质量 60.00 kg
干质量 60.00 kg
总质量 60.00 kg
长度 0.80 m
直径 0.80 m
跨度 0.80 m
形状 Poly
制造商 NPOPM
平台类型 Strela-1 11F625
阶段状态 In Orbit
所有者/国家 GUKOSR/SU

Most Searched